Time,TemperatureF,DewpointF,PressureIn,WindDirection,WindDirectionDegrees,WindSpeedMPH,WindSpeedGustMPH,Humidity,HourlyPrecipIn,Conditions,Clouds,dailyrainin,SoftwareType,DateUTC
2013-06-10 00:03:00,52.6,44.2,29.84,WNW,293,0.7,1.1,73,0.00,,,0.00,WUHU216HW,2013-06-09 23:03:00,
2013-06-10 00:08:00,52.6,44.2,29.84,NW,315,0.4,1.3,73,0.00,,,0.00,WUHU216HW,2013-06-09 23:08:00,
2013-06-10 00:13:00,52.6,44.2,29.84,NW,315,0.4,1.3,73,0.00,,,0.00,WUHU216HW,2013-06-09 23:13:00,
2013-06-10 00:18:00,52.6,44.2,29.84,NW,315,1.1,2.7,73,0.00,,,0.00,WUHU216HW,2013-06-09 23:18:00,
2013-06-10 00:23:00,52.4,44.4,29.84,NNW,338,2.0,2.7,74,0.00,,,0.00,WUHU216HW,2013-06-09 23:23:00,
2013-06-10 00:28:00,52.2,44.2,29.84,NW,315,1.1,2.5,74,0.00,,,0.00,WUHU216HW,2013-06-09 23:28:00,
2013-06-10 00:33:00,52.0,44.4,29.84,NW,315,0.7,2.5,75,0.00,,,0.00,WUHU216HW,2013-06-09 23:33:00,
2013-06-10 00:38:00,51.8,44.2,29.84,NW,315,1.1,2.5,75,0.00,,,0.00,WUHU216HW,2013-06-09 23:38:00,
2013-06-10 00:43:00,51.7,44.4,29.84,WNW,293,1.1,2.5,76,0.00,,,0.00,WUHU216HW,2013-06-09 23:43:00,
2013-06-10 00:48:00,51.5,44.2,29.84,NW,315,0.0,1.8,76,0.00,,,0.00,WUHU216HW,2013-06-09 23:48:00,
2013-06-10 00:53:00,51.5,44.2,29.84,WNW,293,0.0,1.6,76,0.00,,,0.00,WUHU216HW,2013-06-09 23:53:00,
2013-06-10 00:58:00,51.5,44.2,29.84,NW,315,0.4,1.6,76,0.00,,,0.00,WUHU216HW,2013-06-09 23:58:00,
2013-06-10 01:03:00,51.3,44.0,29.84,WNW,293,1.3,1.8,76,0.00,,,0.00,WUHU216HW,2013-06-10 00:03:00,
2013-06-10 01:08:00,51.1,43.8,29.84,NW,315,0.0,1.8,76,0.00,,,0.00,WUHU216HW,2013-06-10 00:08:00,
2013-06-10 01:13:00,50.9,44.0,29.84,NW,315,0.7,1.8,77,0.00,,,0.00,WUHU216HW,2013-06-10 00:13:00,
2013-06-10 01:18:00,50.8,43.8,29.84,WNW,293,0.2,1.1,77,0.00,,,0.00,WUHU216HW,2013-06-10 00:18:00,
2013-06-10 01:23:00,50.6,43.7,29.84,NW,315,0.0,1.8,77,0.00,,,0.00,WUHU216HW,2013-06-10 00:23:00,
2013-06-10 01:28:00,50.4,43.5,29.84,WNW,293,0.2,1.8,77,0.00,,,0.00,WUHU216HW,2013-06-10 00:28:00,
2013-06-10 01:33:00,50.2,43.3,29.84,NW,315,1.1,1.3,77,0.00,,,0.00,WUHU216HW,2013-06-10 00:33:00,
2013-06-10 01:38:00,50.0,43.4,29.84,NW,315,0.2,1.3,78,0.00,,,0.00,WUHU216HW,2013-06-10 00:38:00,
2013-06-10 01:43:00,50.0,43.4,29.84,NW,315,0.0,1.1,78,0.00,,,0.00,WUHU216HW,2013-06-10 00:43:00,
2013-06-10 01:48:00,49.9,43.2,29.84,WNW,293,0.0,0.7,78,0.00,,,0.00,WUHU216HW,2013-06-10 00:48:00,
2013-06-10 01:53:00,49.7,43.0,29.84,WNW,293,0.0,0.7,78,0.00,,,0.00,WUHU216HW,2013-06-10 00:53:00,
2013-06-10 01:58:00,49.5,42.8,29.84,NW,315,0.0,0.9,78,0.00,,,0.00,WUHU216HW,2013-06-10 00:58:00,
2013-06-10 02:03:00,49.3,43.0,29.84,NW,315,0.4,1.1,79,0.00,,,0.00,WUHU216HW,2013-06-10 01:03:00,
2013-06-10 02:08:00,49.3,43.0,29.83,WNW,293,0.4,1.1,79,0.00,,,0.00,WUHU216HW,2013-06-10 01:08:00,
2013-06-10 02:13:00,49.3,43.0,29.83,WNW,293,0.4,0.9,79,0.00,,,0.00,WUHU216HW,2013-06-10 01:13:00,
2013-06-10 02:18:00,49.1,42.8,29.83,NW,315,0.0,1.1,79,0.00,,,0.00,WUHU216HW,2013-06-10 01:18:00,
2013-06-10 02:23:00,49.1,42.8,29.83,NW,315,0.0,1.1,79,0.00,,,0.00,WUHU216HW,2013-06-10 01:23:00,
2013-06-10 02:28:00,49.0,42.7,29.83,NW,315,0.0,0.4,79,0.00,,,0.00,WUHU216HW,2013-06-10 01:28:00,
2013-06-10 02:33:00,49.0,42.7,29.83,NW,315,0.4,0.4,79,0.00,,,0.00,WUHU216HW,2013-06-10 01:33:00,
2013-06-10 02:38:00,49.0,43.0,29.83,NW,315,0.2,0.9,80,0.00,,,0.00,WUHU216HW,2013-06-10 01:38:00,
2013-06-10 02:43:00,49.0,42.7,29.83,NW,315,0.0,0.9,79,0.00,,,0.00,WUHU216HW,2013-06-10 01:43:00,
2013-06-10 02:48:00,49.0,42.7,29.83,NNE,23,0.0,0.7,79,0.00,,,0.00,WUHU216HW,2013-06-10 01:48:00,
2013-06-10 02:53:00,49.1,43.2,29.83,WNW,293,0.2,0.7,80,0.00,,,0.00,WUHU216HW,2013-06-10 01:53:00,
2013-06-10 02:58:00,49.3,43.4,29.83,WNW,293,0.0,0.7,80,0.00,,,0.00,WUHU216HW,2013-06-10 01:58:00,
2013-06-10 03:03:00,49.3,43.0,29.83,WNW,293,1.1,1.3,79,0.00,,,0.00,WUHU216HW,2013-06-10 02:03:00,
2013-06-10 03:08:00,49.5,43.2,29.83,WNW,293,0.2,1.3,79,0.00,,,0.00,WUHU216HW,2013-06-10 02:08:00,
2013-06-10 03:13:00,49.5,43.2,29.83,NW,315,0.9,1.1,79,0.00,,,0.00,WUHU216HW,2013-06-10 02:13:00,
2013-06-10 03:18:00,49.7,43.4,29.83,NW,315,0.7,1.3,79,0.00,,,0.00,WUHU216HW,2013-06-10 02:18:00,
2013-06-10 03:23:00,49.7,43.0,29.83,NW,315,0.7,1.8,78,0.00,,,0.00,WUHU216HW,2013-06-10 02:23:00,
2013-06-10 03:28:00,49.7,43.4,29.83,WNW,293,0.2,1.8,79,0.00,,,0.00,WUHU216HW,2013-06-10 02:28:00,
2013-06-10 03:33:00,49.7,43.4,29.82,WNW,293,0.2,1.1,79,0.00,,,0.00,WUHU216HW,2013-06-10 02:33:00,
2013-06-10 03:38:00,49.9,43.2,29.82,WNW,293,0.0,1.1,78,0.00,,,0.00,WUHU216HW,2013-06-10 02:38:00,
2013-06-10 03:43:00,49.9,43.6,29.82,NW,315,0.0,0.9,79,0.00,,,0.00,WUHU216HW,2013-06-10 02:43:00,
2013-06-10 03:48:00,49.9,43.2,29.82,NW,315,0.0,0.9,78,0.00,,,0.00,WUHU216HW,2013-06-10 02:48:00,
2013-06-10 03:53:00,50.0,43.4,29.82,NW,315,0.0,0.4,78,0.00,,,0.00,WUHU216HW,2013-06-10 02:53:00,
2013-06-10 03:58:00,50.0,43.4,29.83,NW,315,0.0,0.2,78,0.00,,,0.00,WUHU216HW,2013-06-10 02:58:00,
2013-06-10 04:03:00,50.0,43.4,29.83,ENE,68,0.0,0.7,78,0.00,,,0.00,WUHU216HW,2013-06-10 03:03:00,
2013-06-10 04:08:00,50.0,43.4,29.83,ENE,68,0.4,0.7,78,0.00,,,0.00,WUHU216HW,2013-06-10 03:08:00,
2013-06-10 04:13:00,50.0,43.4,29.83,East,90,0.4,1.3,78,0.00,,,0.00,WUHU216HW,2013-06-10 03:13:00,
2013-06-10 04:18:00,50.0,43.4,29.83,East,90,0.7,1.8,78,0.00,,,0.00,WUHU216HW,2013-06-10 03:18:00,
2013-06-10 04:23:00,50.0,43.1,29.83,ENE,68,1.6,2.2,77,0.00,,,0.00,WUHU216HW,2013-06-10 03:23:00,
2013-06-10 04:28:00,50.2,43.3,29.83,ENE,68,0.2,3.4,77,0.00,,,0.00,WUHU216HW,2013-06-10 03:28:00,
2013-06-10 04:33:00,50.2,43.3,29.82,East,90,0.4,3.4,77,0.00,,,0.00,WUHU216HW,2013-06-10 03:33:00,
2013-06-10 04:38:00,50.4,42.8,29.82,East,90,0.2,2.0,75,0.00,,,0.00,WUHU216HW,2013-06-10 03:38:00,
2013-06-10 04:43:00,50.4,42.8,29.82,East,90,0.0,1.6,75,0.00,,,0.00,WUHU216HW,2013-06-10 03:43:00,
2013-06-10 04:48:00,50.6,42.6,29.82,ESE,113,0.2,1.6,74,0.00,,,0.00,WUHU216HW,2013-06-10 03:48:00,
2013-06-10 04:53:00,50.8,42.4,29.83,ENE,68,0.4,1.6,73,0.00,,,0.00,WUHU216HW,2013-06-10 03:53:00,
2013-06-10 04:58:00,50.8,42.4,29.82,East,90,0.0,2.5,73,0.00,,,0.00,WUHU216HW,2013-06-10 03:58:00,
2013-06-10 05:01:00,50.8,42.4,29.82,East,90,0.4,2.5,73,0.00,,,0.00,WUHU216HW,2013-06-10 04:01:00,
2013-06-10 05:06:00,50.8,42.4,29.82,East,90,0.9,2.5,73,0.00,,,0.00,WUHU216HW,2013-06-10 04:06:00,
2013-06-10 05:11:00,50.9,42.6,29.82,ENE,68,0.4,2.7,73,0.00,,,0.00,WUHU216HW,2013-06-10 04:11:00,
2013-06-10 05:16:00,50.9,42.3,29.82,East,90,1.1,2.7,72,0.00,,,0.00,WUHU216HW,2013-06-10 04:16:00,
2013-06-10 05:21:00,51.1,42.8,29.82,East,90,1.1,2.9,73,0.00,,,0.00,WUHU216HW,2013-06-10 04:21:00,
2013-06-10 05:26:00,50.9,42.6,29.82,East,90,2.0,3.8,73,0.00,,,0.00,WUHU216HW,2013-06-10 04:26:00,
2013-06-10 05:31:00,51.1,42.5,29.82,East,90,1.8,3.8,72,0.00,,,0.00,WUHU216HW,2013-06-10 04:31:00,
2013-06-10 05:36:00,51.1,42.8,29.82,NE,45,1.3,2.0,73,0.00,,,0.00,WUHU216HW,2013-06-10 04:36:00,
2013-06-10 05:41:00,51.1,42.8,29.82,ENE,68,0.7,1.8,73,0.00,,,0.00,WUHU216HW,2013-06-10 04:41:00,
2013-06-10 05:47:00,51.1,42.8,29.82,ENE,68,0.0,3.6,73,0.00,,,0.00,WUHU216HW,2013-06-10 04:47:00,
2013-06-10 05:52:00,51.1,42.8,29.82,WNW,293,0.7,3.6,73,0.00,,,0.00,WUHU216HW,2013-06-10 04:52:00,
2013-06-10 05:57:00,51.1,42.5,29.82,NE,45,0.2,2.7,72,0.00,,,0.00,WUHU216HW,2013-06-10 04:57:00,
2013-06-10 06:02:00,51.3,42.9,29.82,East,90,0.2,1.8,73,0.00,,,0.00,WUHU216HW,2013-06-10 05:02:00,
2013-06-10 06:07:00,51.3,42.9,29.82,East,90,3.1,3.1,73,0.00,,,0.00,WUHU216HW,2013-06-10 05:07:00,
2013-06-10 06:12:00,51.5,43.1,29.82,ENE,68,0.0,3.1,73,0.00,,,0.00,WUHU216HW,2013-06-10 05:12:00,
2013-06-10 06:17:00,51.5,43.1,29.82,SE,135,1.1,3.1,73,0.00,,,0.00,WUHU216HW,2013-06-10 05:17:00,
2013-06-10 06:22:00,51.5,42.9,29.82,ENE,68,1.3,1.8,72,0.00,,,0.00,WUHU216HW,2013-06-10 05:22:00,
2013-06-10 06:27:00,51.5,43.1,29.82,ENE,68,0.4,1.8,73,0.00,,,0.00,WUHU216HW,2013-06-10 05:27:00,
2013-06-10 06:32:00,51.5,42.9,29.83,ENE,68,0.0,1.8,72,0.00,,,0.00,WUHU216HW,2013-06-10 05:32:00,
2013-06-10 06:37:00,51.5,42.9,29.83,ENE,68,1.3,1.8,72,0.00,,,0.00,WUHU216HW,2013-06-10 05:37:00,
2013-06-10 06:42:00,51.7,43.0,29.83,NE,45,0.4,2.0,72,0.00,,,0.00,WUHU216HW,2013-06-10 05:42:00,
2013-06-10 06:47:00,51.8,43.2,29.83,ENE,68,0.4,2.0,72,0.00,,,0.00,WUHU216HW,2013-06-10 05:47:00,
2013-06-10 06:52:00,51.8,43.2,29.83,ENE,68,0.4,1.8,72,0.00,,,0.00,WUHU216HW,2013-06-10 05:52:00,
2013-06-10 06:57:00,51.8,43.2,29.83,NNE,23,0.4,2.0,72,0.00,,,0.00,WUHU216HW,2013-06-10 05:57:00,
2013-06-10 07:02:00,51.8,43.5,29.83,East,90,0.4,2.0,73,0.00,,,0.00,WUHU216HW,2013-06-10 06:02:00,
2013-06-10 07:07:00,51.8,43.2,29.83,ESE,113,1.3,2.5,72,0.00,,,0.00,WUHU216HW,2013-06-10 06:07:00,
2013-06-10 07:12:00,51.8,43.2,29.83,East,90,0.4,2.5,72,0.00,,,0.00,WUHU216HW,2013-06-10 06:12:00,
2013-06-10 07:17:00,52.0,43.3,29.83,East,90,0.4,1.6,72,0.00,,,0.00,WUHU216HW,2013-06-10 06:17:00,
2013-06-10 07:22:00,52.0,43.0,29.83,ENE,68,0.2,1.6,71,0.00,,,0.00,WUHU216HW,2013-06-10 06:22:00,
2013-06-10 07:27:00,52.0,43.3,29.84,ENE,68,1.3,1.6,72,0.00,,,0.00,WUHU216HW,2013-06-10 06:27:00,
2013-06-10 07:32:00,52.0,43.0,29.83,NW,315,0.0,1.6,71,0.00,,,0.00,WUHU216HW,2013-06-10 06:32:00,
2013-06-10 07:37:00,52.0,43.3,29.83,ESE,113,0.0,1.3,72,0.00,,,0.00,WUHU216HW,2013-06-10 06:37:00,
2013-06-10 07:42:00,52.0,43.3,29.83,East,90,1.1,1.3,72,0.00,,,0.00,WUHU216HW,2013-06-10 06:42:00,
2013-06-10 07:47:00,52.2,43.5,29.84,East,90,0.2,1.3,72,0.00,,,0.00,WUHU216HW,2013-06-10 06:47:00,
2013-06-10 07:52:00,52.2,43.1,29.84,ENE,68,1.3,2.2,71,0.00,,,0.00,WUHU216HW,2013-06-10 06:52:00,
2013-06-10 07:57:00,52.2,43.1,29.84,NE,45,1.8,3.4,71,0.00,,,0.00,WUHU216HW,2013-06-10 06:57:00,
2013-06-10 08:02:00,52.2,43.5,29.84,ESE,113,1.1,3.6,72,0.00,,,0.00,WUHU216HW,2013-06-10 07:02:00,
2013-06-10 08:07:00,52.0,43.3,29.84,ESE,113,0.2,3.6,72,0.00,,,0.00,WUHU216HW,2013-06-10 07:07:00,
2013-06-10 08:12:00,52.2,43.5,29.84,ESE,113,0.4,2.9,72,0.00,,,0.00,WUHU216HW,2013-06-10 07:12:00,
2013-06-10 08:17:00,52.2,43.5,29.84,ENE,68,1.1,1.8,72,0.00,,,0.00,WUHU216HW,2013-06-10 07:17:00,
2013-06-10 08:22:00,52.2,43.5,29.84,WNW,293,0.0,1.1,72,0.00,,,0.00,WUHU216HW,2013-06-10 07:22:00,
2013-06-10 08:27:00,52.2,43.5,29.84,East,90,0.4,1.6,72,0.00,,,0.00,WUHU216HW,2013-06-10 07:27:00,
2013-06-10 08:32:00,52.4,43.3,29.84,East,90,1.1,1.6,71,0.00,,,0.00,WUHU216HW,2013-06-10 07:32:00,
2013-06-10 08:37:00,52.6,43.8,29.84,ENE,68,0.2,1.1,72,0.00,,,0.00,WUHU216HW,2013-06-10 07:37:00,
2013-06-10 08:42:00,52.6,43.5,29.84,NW,315,0.4,3.6,71,0.00,,,0.00,WUHU216HW,2013-06-10 07:42:00,
2013-06-10 08:47:00,52.6,43.5,29.85,NW,315,0.0,3.6,71,0.00,,,0.00,WUHU216HW,2013-06-10 07:47:00,
2013-06-10 08:52:00,52.7,43.7,29.85,NNW,338,0.4,0.4,71,0.00,,,0.00,WUHU216HW,2013-06-10 07:52:00,
2013-06-10 08:57:00,52.7,43.7,29.84,WNW,293,1.1,1.1,71,0.00,,,0.00,WUHU216HW,2013-06-10 07:57:00,
2013-06-10 09:02:00,52.7,43.7,29.85,NW,315,0.9,2.2,71,0.00,,,0.00,WUHU216HW,2013-06-10 08:02:00,
2013-06-10 09:07:00,52.9,43.5,29.84,NW,315,1.3,2.2,70,0.00,,,0.00,WUHU216HW,2013-06-10 08:07:00,
2013-06-10 09:12:00,53.1,44.0,29.84,NW,315,0.4,1.6,71,0.00,,,0.00,WUHU216HW,2013-06-10 08:12:00,
2013-06-10 09:17:00,53.3,44.1,29.84,WNW,293,0.0,1.1,71,0.00,,,0.00,WUHU216HW,2013-06-10 08:17:00,
2013-06-10 09:22:00,53.6,44.1,29.84,NE,45,0.4,1.6,70,0.00,,,0.00,WUHU216HW,2013-06-10 08:22:00,
2013-06-10 09:27:00,53.6,43.8,29.84,ENE,68,0.0,1.6,69,0.00,,,0.00,WUHU216HW,2013-06-10 08:27:00,
2013-06-10 09:32:00,53.8,43.9,29.84,ENE,68,0.2,2.5,69,0.00,,,0.00,WUHU216HW,2013-06-10 08:32:00,
2013-06-10 09:37:00,54.0,44.1,29.84,North,0,0.0,2.5,69,0.00,,,0.00,WUHU216HW,2013-06-10 08:37:00,
2013-06-10 09:42:00,54.4,44.5,29.84,ENE,68,1.3,1.8,69,0.00,,,0.00,WUHU216HW,2013-06-10 08:42:00,
2013-06-10 09:47:00,54.5,44.6,29.84,SSE,158,0.4,1.8,69,0.00,,,0.00,WUHU216HW,2013-06-10 08:47:00,
2013-06-10 09:52:00,54.5,44.2,29.84,ENE,68,0.9,2.7,68,0.00,,,0.00,WUHU216HW,2013-06-10 08:52:00,
2013-06-10 09:57:00,54.7,43.9,29.84,SE,135,1.6,2.9,67,0.00,,,0.00,WUHU216HW,2013-06-10 08:57:00,
2013-06-10 10:02:00,54.7,43.9,29.84,ESE,113,0.0,2.9,67,0.00,,,0.00,WUHU216HW,2013-06-10 09:02:00,
2013-06-10 10:07:00,55.1,44.3,29.84,SE,135,1.1,1.8,67,0.00,,,0.00,WUHU216HW,2013-06-10 09:07:00,
2013-06-10 10:12:00,55.1,44.3,29.85,ESE,113,1.1,1.6,67,0.00,,,0.00,WUHU216HW,2013-06-10 09:12:00,
2013-06-10 10:17:00,55.3,44.5,29.85,East,90,0.0,1.8,67,0.00,,,0.00,WUHU216HW,2013-06-10 09:17:00,
2013-06-10 10:22:00,55.3,44.1,29.84,ENE,68,0.2,1.8,66,0.00,,,0.00,WUHU216HW,2013-06-10 09:22:00,
2013-06-10 10:27:00,55.4,44.3,29.84,ENE,68,0.2,1.1,66,0.00,,,0.00,WUHU216HW,2013-06-10 09:27:00,
2013-06-10 10:32:00,55.3,44.1,29.84,ENE,68,0.2,1.1,66,0.00,,,0.00,WUHU216HW,2013-06-10 09:32:00,
2013-06-10 10:37:00,55.4,44.3,29.84,ENE,68,0.0,0.4,66,0.00,,,0.00,WUHU216HW,2013-06-10 09:37:00,
2013-06-10 10:42:00,55.6,44.4,29.84,ENE,68,0.0,0.7,66,0.00,,,0.00,WUHU216HW,2013-06-10 09:42:00,
2013-06-10 10:47:00,55.6,44.4,29.84,SSW,203,0.2,1.3,66,0.00,,,0.00,WUHU216HW,2013-06-10 09:47:00,
2013-06-10 10:52:00,55.6,44.4,29.85,ESE,113,0.4,1.8,66,0.00,,,0.00,WUHU216HW,2013-06-10 09:52:00,
2013-06-10 10:57:00,55.8,44.6,29.85,SSW,203,1.8,1.8,66,0.00,,,0.00,WUHU216HW,2013-06-10 09:57:00,
2013-06-10 11:02:00,55.8,44.2,29.85,ESE,113,1.1,2.5,65,0.00,,,0.00,WUHU216HW,2013-06-10 10:02:00,
2013-06-10 11:07:00,55.8,44.2,29.85,NE,45,0.2,2.5,65,0.00,,,0.00,WUHU216HW,2013-06-10 10:07:00,
2013-06-10 11:12:00,56.0,44.4,29.85,SE,135,0.4,2.5,65,0.00,,,0.00,WUHU216HW,2013-06-10 10:12:00,
2013-06-10 11:17:00,55.8,44.2,29.85,ESE,113,0.2,2.5,65,0.00,,,0.00,WUHU216HW,2013-06-10 10:17:00,
2013-06-10 11:22:00,55.8,43.7,29.85,SE,135,0.7,1.8,64,0.00,,,0.00,WUHU216HW,2013-06-10 10:22:00,
2013-06-10 11:27:00,56.0,44.4,29.85,SSW,203,0.0,1.8,65,0.00,,,0.00,WUHU216HW,2013-06-10 10:27:00,
2013-06-10 11:32:00,56.0,44.4,29.85,SE,135,0.2,1.8,65,0.00,,,0.00,WUHU216HW,2013-06-10 10:32:00,
2013-06-10 11:37:00,56.2,44.1,29.85,SSW,203,0.4,1.8,64,0.00,,,0.00,WUHU216HW,2013-06-10 10:37:00,
2013-06-10 11:42:00,56.5,44.5,29.85,ESE,113,0.4,1.8,64,0.00,,,0.00,WUHU216HW,2013-06-10 10:42:00,
2013-06-10 11:47:00,56.5,44.0,29.85,ENE,68,0.7,1.6,63,0.00,,,0.00,WUHU216HW,2013-06-10 10:47:00,
2013-06-10 11:52:00,56.9,44.4,29.85,ESE,113,0.7,1.3,63,0.00,,,0.00,WUHU216HW,2013-06-10 10:52:00,
2013-06-10 11:57:00,57.1,44.6,29.85,SSE,158,0.7,1.3,63,0.00,,,0.00,WUHU216HW,2013-06-10 10:57:00,
2013-06-10 12:02:00,57.2,44.4,29.85,South,180,0.0,1.1,62,0.00,,,0.00,WUHU216HW,2013-06-10 11:02:00,
2013-06-10 12:07:00,57.4,44.6,29.85,South,180,0.4,1.1,62,0.00,,,0.00,WUHU216HW,2013-06-10 11:07:00,
2013-06-10 12:12:00,57.6,44.3,29.85,ENE,68,0.2,1.1,61,0.00,,,0.00,WUHU216HW,2013-06-10 11:12:00,
2013-06-10 12:17:00,57.2,43.6,29.85,WNW,293,1.6,2.0,60,0.00,,,0.00,WUHU216HW,2013-06-10 11:17:00,
2013-06-10 12:22:00,56.5,43.7,29.85,NW,315,0.2,2.0,62,0.00,,,0.00,WUHU216HW,2013-06-10 11:22:00,
2013-06-10 12:27:00,56.7,43.8,29.85,West,270,0.2,1.6,62,0.00,,,0.00,WUHU216HW,2013-06-10 11:27:00,
2013-06-10 12:32:00,57.1,43.7,29.85,ESE,113,0.4,0.9,61,0.00,,,0.00,WUHU216HW,2013-06-10 11:32:00,
2013-06-10 12:37:00,57.1,44.2,29.85,ENE,68,0.2,2.5,62,0.00,,,0.00,WUHU216HW,2013-06-10 11:37:00,
2013-06-10 12:42:00,57.2,44.4,29.85,ENE,68,1.3,2.5,62,0.00,,,0.00,WUHU216HW,2013-06-10 11:42:00,
2013-06-10 12:47:00,57.2,44.4,29.85,East,90,0.4,2.0,62,0.00,,,0.00,WUHU216HW,2013-06-10 11:47:00,
2013-06-10 12:52:00,57.4,44.1,29.84,ENE,68,0.4,2.5,61,0.00,,,0.00,WUHU216HW,2013-06-10 11:52:00,
2013-06-10 12:57:00,57.4,44.6,29.84,East,90,1.6,2.5,62,0.00,,,0.00,WUHU216HW,2013-06-10 11:57:00,
2013-06-10 13:02:00,57.6,44.6,29.84,ESE,113,2.0,2.5,62,0.00,,,0.00,WUHU216HW,2013-06-10 12:02:00,
2013-06-10 13:07:00,57.4,44.1,29.84,East,90,0.4,2.0,61,0.00,,,0.00,WUHU216HW,2013-06-10 12:07:00,
2013-06-10 13:12:00,57.6,45.1,29.84,East,90,1.8,2.5,63,0.00,,,0.00,WUHU216HW,2013-06-10 12:12:00,
2013-06-10 13:17:00,57.8,44.8,29.84,ENE,68,0.4,2.5,62,0.00,,,0.00,WUHU216HW,2013-06-10 12:17:00,
2013-06-10 13:22:00,57.6,44.6,29.84,ENE,68,1.8,3.1,62,0.00,,,0.00,WUHU216HW,2013-06-10 12:22:00,
2013-06-10 13:27:00,57.2,43.9,29.84,ENE,68,0.0,3.1,61,0.00,,,0.00,WUHU216HW,2013-06-10 12:27:00,
2013-06-10 13:32:00,57.2,44.4,29.84,East,90,0.4,1.8,62,0.00,,,0.00,WUHU216HW,2013-06-10 12:32:00,
2013-06-10 13:37:00,57.4,44.9,29.84,East,90,0.0,1.8,63,0.00,,,0.00,WUHU216HW,2013-06-10 12:37:00,
2013-06-10 13:42:00,58.0,45.5,29.84,ESE,113,1.6,1.8,63,0.00,,,0.00,WUHU216HW,2013-06-10 12:42:00,
2013-06-10 13:47:00,58.7,46.1,29.84,ESE,113,0.4,2.0,63,0.00,,,0.00,WUHU216HW,2013-06-10 12:47:00,
2013-06-10 13:52:00,59.0,46.0,29.84,ENE,68,0.2,2.5,62,0.00,,,0.00,WUHU216HW,2013-06-10 12:52:00,
2013-06-10 13:57:00,59.2,46.2,29.84,SE,135,0.4,2.5,62,0.00,,,0.00,WUHU216HW,2013-06-10 12:57:00,
2013-06-10 14:02:00,59.4,46.4,29.83,SSE,158,0.9,1.1,62,0.00,,,0.00,WUHU216HW,2013-06-10 13:02:00,
2013-06-10 14:07:00,59.6,46.2,29.83,ENE,68,0.4,3.8,61,0.00,,,0.00,WUHU216HW,2013-06-10 13:07:00,
2013-06-10 14:12:00,59.9,45.1,29.84,WNW,293,0.2,3.8,58,0.00,,,0.00,WUHU216HW,2013-06-10 13:12:00,
2013-06-10 14:17:00,59.9,46.1,29.83,SE,135,1.6,2.0,60,0.00,,,0.00,WUHU216HW,2013-06-10 13:17:00,
2013-06-10 14:22:00,60.3,46.0,29.83,ENE,68,0.9,2.2,59,0.00,,,0.00,WUHU216HW,2013-06-10 13:22:00,
2013-06-10 14:27:00,60.3,46.0,29.83,NNE,23,0.2,3.4,59,0.00,,,0.00,WUHU216HW,2013-06-10 13:27:00,
2013-06-10 14:32:00,60.1,45.8,29.83,East,90,0.9,3.4,59,0.00,,,0.00,WUHU216HW,2013-06-10 13:32:00,
2013-06-10 14:37:00,59.9,46.5,29.83,East,90,0.4,2.0,61,0.00,,,0.00,WUHU216HW,2013-06-10 13:37:00,
2013-06-10 14:42:00,60.3,46.4,29.83,East,90,2.9,4.5,60,0.00,,,0.00,WUHU216HW,2013-06-10 13:42:00,
2013-06-10 14:47:00,60.5,46.2,29.83,South,180,1.1,4.5,59,0.00,,,0.00,WUHU216HW,2013-06-10 13:47:00,
2013-06-10 14:53:00,60.5,46.2,29.83,ENE,68,0.4,2.9,59,0.00,,,0.00,WUHU216HW,2013-06-10 13:53:00,
2013-06-10 14:58:00,60.7,46.4,29.83,NE,45,0.4,3.8,59,0.00,,,0.00,WUHU216HW,2013-06-10 13:58:00,
2013-06-10 15:03:00,60.7,45.4,29.83,ESE,113,1.3,3.8,57,0.00,,,0.00,WUHU216HW,2013-06-10 14:03:00,
2013-06-10 15:08:00,60.5,45.6,29.83,ENE,68,0.7,1.8,58,0.00,,,0.00,WUHU216HW,2013-06-10 14:08:00,
2013-06-10 15:13:00,60.5,46.2,29.83,SW,225,0.0,2.5,59,0.00,,,0.00,WUHU216HW,2013-06-10 14:13:00,
2013-06-10 15:18:00,60.7,45.8,29.83,ENE,68,0.7,2.9,58,0.00,,,0.00,WUHU216HW,2013-06-10 14:18:00,
2013-06-10 15:23:00,61.0,47.2,29.83,ESE,113,0.9,3.4,60,0.00,,,0.00,WUHU216HW,2013-06-10 14:23:00,
2013-06-10 15:28:00,61.7,46.4,29.82,SE,135,0.4,3.4,57,0.00,,,0.00,WUHU216HW,2013-06-10 14:28:00,
2013-06-10 15:33:00,62.6,47.6,29.82,ENE,68,1.1,1.8,58,0.00,,,0.00,WUHU216HW,2013-06-10 14:33:00,
2013-06-10 15:38:00,63.7,47.6,29.82,ESE,113,0.7,2.5,56,0.00,,,0.00,WUHU216HW,2013-06-10 14:38:00,
2013-06-10 15:43:00,64.3,47.2,29.82,NNW,338,1.1,2.5,54,0.00,,,0.00,WUHU216HW,2013-06-10 14:43:00,
2013-06-10 15:48:00,64.8,47.2,29.81,SE,135,0.7,3.4,53,0.00,,,0.00,WUHU216HW,2013-06-10 14:48:00,
2013-06-10 15:53:00,65.3,47.3,29.81,South,180,0.9,3.4,52,0.00,,,0.00,WUHU216HW,2013-06-10 14:53:00,
2013-06-10 15:58:00,66.1,47.4,29.81,NE,45,2.5,4.7,51,0.00,,,0.00,WUHU216HW,2013-06-10 14:58:00,
2013-06-10 16:03:00,65.9,47.3,29.81,SE,135,2.5,5.8,51,0.00,,,0.00,WUHU216HW,2013-06-10 15:03:00,
2013-06-10 16:08:00,65.0,46.4,29.81,East,90,0.0,5.8,51,0.00,,,0.00,WUHU216HW,2013-06-10 15:08:00,
2013-06-10 16:13:00,64.4,46.4,29.81,South,180,2.7,4.3,52,0.00,,,0.00,WUHU216HW,2013-06-10 15:13:00,
2013-06-10 16:18:00,64.3,47.2,29.81,SSE,158,2.7,3.1,54,0.00,,,0.00,WUHU216HW,2013-06-10 15:18:00,
2013-06-10 16:23:00,64.4,46.8,29.81,SSE,158,1.8,3.6,53,0.00,,,0.00,WUHU216HW,2013-06-10 15:23:00,
2013-06-10 16:28:00,64.4,46.4,29.81,SE,135,4.7,4.9,52,0.00,,,0.00,WUHU216HW,2013-06-10 15:28:00,
2013-06-10 16:33:00,64.3,46.2,29.81,ENE,68,1.1,4.9,52,0.00,,,0.00,WUHU216HW,2013-06-10 15:33:00,
2013-06-10 16:38:00,63.9,46.4,29.81,ENE,68,6.3,6.3,53,0.00,,,0.00,WUHU216HW,2013-06-10 15:38:00,
2013-06-10 16:43:00,63.2,46.2,29.81,ENE,68,2.0,6.3,54,0.00,,,0.00,WUHU216HW,2013-06-10 15:43:00,
2013-06-10 16:47:00,63.2,46.2,29.81,SSW,203,1.8,6.3,54,0.00,,,0.00,WUHU216HW,2013-06-10 15:47:00,
2013-06-10 16:53:00,63.5,46.5,29.81,SE,135,1.3,4.5,54,0.00,,,0.00,WUHU216HW,2013-06-10 15:53:00,
2013-06-10 16:57:00,63.7,46.6,29.81,SSW,203,0.4,3.6,54,0.00,,,0.00,WUHU216HW,2013-06-10 15:57:00,
2013-06-10 17:03:00,63.9,46.8,29.81,SSE,158,1.1,3.6,54,0.00,,,0.00,WUHU216HW,2013-06-10 16:03:00,
2013-06-10 17:08:00,63.9,46.8,29.81,SE,135,2.7,3.8,54,0.00,,,0.00,WUHU216HW,2013-06-10 16:08:00,
2013-06-10 17:13:00,63.7,46.6,29.81,SE,135,2.0,3.8,54,0.00,,,0.00,WUHU216HW,2013-06-10 16:13:00,
2013-06-10 17:18:00,63.5,46.5,29.81,ESE,113,1.1,3.1,54,0.00,,,0.00,WUHU216HW,2013-06-10 16:18:00,
2013-06-10 17:23:00,63.4,46.4,29.81,SSE,158,1.8,2.5,54,0.00,,,0.00,WUHU216HW,2013-06-10 16:23:00,
2013-06-10 17:28:00,63.5,46.5,29.81,ESE,113,1.8,2.5,54,0.00,,,0.00,WUHU216HW,2013-06-10 16:28:00,
2013-06-10 17:33:00,63.7,46.6,29.81,South,180,0.4,2.5,54,0.00,,,0.00,WUHU216HW,2013-06-10 16:33:00,
2013-06-10 17:38:00,63.7,46.6,29.81,ESE,113,0.4,2.5,54,0.00,,,0.00,WUHU216HW,2013-06-10 16:38:00,
2013-06-10 17:43:00,63.9,47.4,29.81,ESE,113,0.9,1.8,55,0.00,,,0.00,WUHU216HW,2013-06-10 16:43:00,
2013-06-10 17:48:00,63.7,47.2,29.81,SSE,158,1.8,2.7,55,0.00,,,0.00,WUHU216HW,2013-06-10 16:48:00,
2013-06-10 17:53:00,63.4,46.8,29.81,ENE,68,1.1,3.1,55,0.00,,,0.00,WUHU216HW,2013-06-10 16:53:00,
2013-06-10 17:58:00,63.0,47.0,29.80,East,90,1.8,3.1,56,0.00,,,0.00,WUHU216HW,2013-06-10 16:58:00,
2013-06-10 18:03:00,62.8,47.4,29.80,SE,135,2.5,3.4,57,0.00,,,0.00,WUHU216HW,2013-06-10 17:03:00,
2013-06-10 18:08:00,62.6,47.2,29.80,West,270,1.1,3.8,57,0.00,,,0.00,WUHU216HW,2013-06-10 17:08:00,
2013-06-10 18:13:00,62.5,47.4,29.80,ESE,113,0.4,3.8,58,0.00,,,0.00,WUHU216HW,2013-06-10 17:13:00,
2013-06-10 18:18:00,62.5,47.4,29.80,ESE,113,0.7,3.1,58,0.00,,,0.00,WUHU216HW,2013-06-10 17:18:00,
2013-06-10 18:23:00,62.3,46.8,29.80,SSE,158,0.2,2.0,57,0.00,,,0.00,WUHU216HW,2013-06-10 17:23:00,
2013-06-10 18:28:00,62.5,47.0,29.80,ESE,113,0.9,2.0,57,0.00,,,0.00,WUHU216HW,2013-06-10 17:28:00,
2013-06-10 18:33:00,62.6,47.2,29.80,North,0,0.7,2.0,57,0.00,,,0.00,WUHU216HW,2013-06-10 17:33:00,
2013-06-10 18:38:00,62.8,47.8,29.80,East,90,1.1,2.9,58,0.00,,,0.00,WUHU216HW,2013-06-10 17:38:00,
2013-06-10 18:43:00,62.6,47.6,29.80,ENE,68,2.5,2.9,58,0.00,,,0.00,WUHU216HW,2013-06-10 17:43:00,
2013-06-10 18:48:00,62.6,47.6,29.80,SE,135,0.7,2.5,58,0.00,,,0.00,WUHU216HW,2013-06-10 17:48:00,
2013-06-10 18:53:00,62.5,47.4,29.80,SE,135,0.4,2.7,58,0.00,,,0.00,WUHU216HW,2013-06-10 17:53:00,
2013-06-10 18:58:00,62.5,47.4,29.79,East,90,0.7,2.7,58,0.00,,,0.00,WUHU216HW,2013-06-10 17:58:00,
2013-06-10 19:03:00,62.3,48.2,29.79,ESE,113,1.6,3.8,60,0.00,,,0.00,WUHU216HW,2013-06-10 18:03:00,
2013-06-10 19:07:00,61.9,48.3,29.79,SW,225,1.1,3.8,61,0.00,,,0.00,WUHU216HW,2013-06-10 18:07:00,
2013-06-10 19:12:00,61.6,48.4,29.79,SE,135,1.1,2.9,62,0.00,,,0.00,WUHU216HW,2013-06-10 18:12:00,
2013-06-10 19:17:00,61.4,48.7,29.79,SSE,158,0.0,3.1,63,0.00,,,0.00,WUHU216HW,2013-06-10 18:17:00,
2013-06-10 19:22:00,61.2,48.5,29.79,East,90,0.9,3.1,63,0.00,,,0.00,WUHU216HW,2013-06-10 18:22:00,
2013-06-10 19:27:00,61.4,48.7,29.79,ESE,113,0.4,2.5,63,0.00,,,0.00,WUHU216HW,2013-06-10 18:27:00,
2013-06-10 19:32:00,61.6,48.9,29.79,SSE,158,1.1,2.5,63,0.00,,,0.00,WUHU216HW,2013-06-10 18:32:00,
2013-06-10 19:37:00,61.6,48.4,29.79,SSE,158,0.4,2.2,62,0.00,,,0.00,WUHU216HW,2013-06-10 18:37:00,
2013-06-10 19:42:00,61.6,48.4,29.79,SE,135,1.1,2.2,62,0.00,,,0.00,WUHU216HW,2013-06-10 18:42:00,
2013-06-10 19:47:00,61.4,48.3,29.79,SSE,158,3.1,3.1,62,0.00,,,0.00,WUHU216HW,2013-06-10 18:47:00,
2013-06-10 19:52:00,61.0,48.4,29.80,SSE,158,0.4,3.4,63,0.00,,,0.00,WUHU216HW,2013-06-10 18:52:00,
2013-06-10 19:57:00,60.7,48.1,29.79,South,180,2.5,3.4,63,0.00,,,0.00,WUHU216HW,2013-06-10 18:57:00,
2013-06-10 20:02:00,60.5,48.2,29.79,South,180,1.1,3.4,64,0.00,,,0.00,WUHU216HW,2013-06-10 19:02:00,
2013-06-10 20:08:00,60.1,47.9,29.80,SSW,203,1.1,2.9,64,0.00,,,0.00,WUHU216HW,2013-06-10 19:08:00,
2013-06-10 20:13:00,59.6,47.8,29.80,SSE,158,2.0,2.5,65,0.00,,,0.00,WUHU216HW,2013-06-10 19:13:00,
2013-06-10 20:18:00,59.4,47.6,29.80,SE,135,0.4,2.5,65,0.00,,,0.00,WUHU216HW,2013-06-10 19:18:00,
2013-06-10 20:23:00,59.4,47.6,29.80,SSE,158,0.7,2.5,65,0.00,,,0.00,WUHU216HW,2013-06-10 19:23:00,
2013-06-10 20:28:00,59.2,47.4,29.80,NNE,23,1.1,2.5,65,0.00,,,0.00,WUHU216HW,2013-06-10 19:28:00,
2013-06-10 20:33:00,59.2,47.9,29.80,South,180,1.1,2.7,66,0.00,,,0.00,WUHU216HW,2013-06-10 19:33:00,
2013-06-10 20:38:00,59.0,47.3,29.80,South,180,0.7,2.7,65,0.00,,,0.00,WUHU216HW,2013-06-10 19:38:00,
2013-06-10 20:43:00,58.9,47.5,29.80,SW,225,0.9,2.0,66,0.00,,,0.00,WUHU216HW,2013-06-10 19:43:00,
2013-06-10 20:48:00,58.7,47.4,29.80,SSW,203,1.1,2.2,66,0.00,,,0.00,WUHU216HW,2013-06-10 19:48:00,
2013-06-10 20:53:00,58.7,47.4,29.81,East,90,0.7,2.2,66,0.00,,,0.00,WUHU216HW,2013-06-10 19:53:00,
2013-06-10 20:57:00,58.7,47.4,29.80,SSE,158,0.2,1.6,66,0.00,,,0.00,WUHU216HW,2013-06-10 19:57:00,
2013-06-10 21:02:00,58.7,47.4,29.80,SSW,203,0.0,1.6,66,0.00,,,0.00,WUHU216HW,2013-06-10 20:02:00,
2013-06-10 21:07:00,58.7,47.7,29.80,SSE,158,0.0,1.8,67,0.00,,,0.00,WUHU216HW,2013-06-10 20:07:00,
2013-06-10 21:12:00,58.5,47.2,29.80,SE,135,1.6,2.5,66,0.00,,,0.00,WUHU216HW,2013-06-10 20:12:00,
2013-06-10 21:17:00,58.3,47.0,29.80,SSE,158,0.2,2.5,66,0.00,,,0.00,WUHU216HW,2013-06-10 20:17:00,
2013-06-10 21:22:00,58.1,47.3,29.81,SE,135,0.2,1.8,67,0.00,,,0.00,WUHU216HW,2013-06-10 20:22:00,
2013-06-10 21:27:00,58.0,47.4,29.81,South,180,0.7,1.8,68,0.00,,,0.00,WUHU216HW,2013-06-10 20:27:00,
2013-06-10 21:32:00,57.8,47.3,29.81,SSE,158,0.2,1.6,68,0.00,,,0.00,WUHU216HW,2013-06-10 20:32:00,
2013-06-10 21:38:00,57.6,47.5,29.81,South,180,0.4,1.6,69,0.00,,,0.00,WUHU216HW,2013-06-10 20:38:00,
2013-06-10 21:43:00,57.4,47.4,29.81,SSE,158,0.4,2.7,69,0.00,,,0.00,WUHU216HW,2013-06-10 20:43:00,
2013-06-10 21:48:00,57.2,47.2,29.81,SSE,158,0.2,2.7,69,0.00,,,0.00,WUHU216HW,2013-06-10 20:48:00,
2013-06-10 21:53:00,57.2,47.2,29.81,SSW,203,0.2,1.1,69,0.00,,,0.00,WUHU216HW,2013-06-10 20:53:00,
2013-06-10 21:58:00,56.9,46.8,29.81,SE,135,0.4,2.2,69,0.00,,,0.00,WUHU216HW,2013-06-10 20:58:00,
2013-06-10 22:03:00,56.7,47.1,29.81,ENE,68,0.4,2.2,70,0.00,,,0.00,WUHU216HW,2013-06-10 21:03:00,
2013-06-10 22:08:00,56.5,46.9,29.81,South,180,0.7,1.8,70,0.00,,,0.00,WUHU216HW,2013-06-10 21:08:00,
2013-06-10 22:13:00,56.3,46.7,29.81,SW,225,1.1,2.2,70,0.00,,,0.00,WUHU216HW,2013-06-10 21:13:00,
2013-06-10 22:17:00,56.3,46.7,29.81,South,180,1.3,2.7,70,0.00,,,0.00,WUHU216HW,2013-06-10 21:17:00,
2013-06-10 22:23:00,56.2,46.9,29.81,South,180,2.2,2.9,71,0.00,,,0.00,WUHU216HW,2013-06-10 21:23:00,
2013-06-10 22:28:00,56.0,46.7,29.81,ESE,113,0.4,2.9,71,0.00,,,0.00,WUHU216HW,2013-06-10 21:28:00,
2013-06-10 22:33:00,55.8,46.5,29.81,SE,135,1.1,2.5,71,0.00,,,0.00,WUHU216HW,2013-06-10 21:33:00,
2013-06-10 22:38:00,55.8,46.5,29.81,SSE,158,1.3,1.8,71,0.00,,,0.00,WUHU216HW,2013-06-10 21:38:00,
2013-06-10 22:43:00,55.6,46.7,29.81,SSW,203,0.7,1.6,72,0.00,,,0.00,WUHU216HW,2013-06-10 21:43:00,
2013-06-10 22:48:00,55.3,46.1,29.81,South,180,1.3,2.7,71,0.00,,,0.00,WUHU216HW,2013-06-10 21:48:00,
2013-06-10 22:53:00,55.1,46.3,29.81,SSE,158,0.2,2.7,72,0.00,,,0.00,WUHU216HW,2013-06-10 21:53:00,
2013-06-10 22:58:00,55.1,46.3,29.81,ESE,113,0.4,2.7,72,0.00,,,0.00,WUHU216HW,2013-06-10 21:58:00,
2013-06-10 23:03:00,54.7,45.9,29.81,ESE,113,0.2,2.7,72,0.00,,,0.00,WUHU216HW,2013-06-10 22:03:00,
2013-06-10 23:08:00,54.5,45.7,29.81,ESE,113,0.4,1.1,72,0.00,,,0.00,WUHU216HW,2013-06-10 22:08:00,
2013-06-10 23:13:00,54.4,45.6,29.81,ESE,113,0.2,1.1,72,0.00,,,0.00,WUHU216HW,2013-06-10 22:13:00,
2013-06-10 23:18:00,54.2,45.4,29.81,SSW,203,0.2,1.3,72,0.00,,,0.00,WUHU216HW,2013-06-10 22:18:00,
2013-06-10 23:23:00,54.0,45.2,29.82,SSW,203,0.2,1.3,72,0.00,,,0.00,WUHU216HW,2013-06-10 22:23:00,
2013-06-10 23:28:00,53.6,44.8,29.82,SSW,203,0.0,0.4,72,0.00,,,0.00,WUHU216HW,2013-06-10 22:28:00,
2013-06-10 23:33:00,53.5,44.6,29.81,SSW,203,0.0,0.9,72,0.00,,,0.00,WUHU216HW,2013-06-10 22:33:00,
2013-06-10 23:38:00,53.3,44.1,29.81,SSW,203,0.0,0.9,71,0.00,,,0.00,WUHU216HW,2013-06-10 22:38:00,
2013-06-10 23:43:00,52.9,44.2,29.81,SSW,203,0.2,0.4,72,0.00,,,0.00,WUHU216HW,2013-06-10 22:43:00,
2013-06-10 23:48:00,52.7,44.0,29.81,SSW,203,0.7,0.7,72,0.00,,,0.00,WUHU216HW,2013-06-10 22:48:00,
2013-06-10 23:53:00,52.6,43.8,29.81,SSE,158,0.0,0.7,72,0.00,,,0.00,WUHU216HW,2013-06-10 22:53:00,
2013-06-10 23:58:00,52.4,43.7,29.81,SSE,158,0.0,0.7,72,0.00,,,0.00,WUHU216HW,2013-06-10 22:58:00,